sat.trackr.live / text

‹ back to catalog

STARLINK-2586

NORAD 48390 · 2021-038AP

PAYLOAD ACTIVE UNKNOWN

§ Identity

Operator
Country
US
Launch date
2021-05-04
Launch site
AFETR
Launch vehicle
Mass (kg)
RCS (m²)

Purposes: comms

External: N2YO · Heavens-Above · Gunter

§ Orbital elements

Epoch: 2026-05-24T18:40:42.896064Z

Period
94.01 min
Inclination
53.1612°
Eccentricity
0.0001203
Mean motion
15.31706513 rev/d
Perigee alt
469.9 km
Apogee alt
471.5 km
Semi-major
6,848.9 km
B*
7.7593e-5
RAAN
338.7718°
Arg perigee
96.2790°
Mean anomaly
263.8348°
Rev number
28,031

§ Raw data

STARLINK-25861 48390U 21038AP  26144.77827426  .00002044  00000+0  77593-4 0  99922 48390  53.1612 338.7718 0001203  96.2790 263.8348 15.31706513280310

JSON: /api/v1/satellites/48390 · /tle

For live sub-satellite position, see the globe view (requires WebGL).

§ Visibility from observer

Set your observer location to see the next 7 days of passes ≥ 10°. The values pass through the URL so the page stays shareable.

No JS? Fill the form by hand. The geolocation button needs JavaScript.